Home > Weather > Vieux Fort > Past weeks

Flag for Saint Lucia Weather for the Past 2 Weeks in Vieux Fort, Saint Lucia

Now
84 °F

Passing clouds.


Feels Like: 91 °F
Forecast: 78 / 84 °F
Wind: 20 mph from East

Location: Hewanorra International Airport

Current Time: Feb 11, 2016 at 12:07:36 PM

Latest Report: Feb 11, 2016 at 11:00 AM


Visibility: N/A

Pressure: 30.07 "Hg

Humidity: 70%

Dew point: 73 °F

Location of Vieux FortLocation

Historic Weather in Vieux Fort — Graph

°F

Vieux Fort Temperature Yesterday

Maximum temperature yesterday: 81 °F (at 12:00 PM)
Minimum temperature yesterday: 75 °F (at 9:00 AM)
Average temperature yesterday: 79 °F

High & Low Weather Summary for the Past Weeks

 TemperatureHumidityPressure
High86 °F (Jan 29, 1:00 PM)94% (Jan 31, 8:00 AM)30.12 "Hg (Jan 31, 8:00 AM)
Low70 °F (Feb 4, 6:00 AM)55% (Feb 1, 1:00 PM)29.86 "Hg (Feb 4, 3:00 PM)
Average80 °F75%30.00 "Hg
* Reported Jan 27 11:00 AM — Feb 11 11:00 AM, Vieux Fort, Weather by CustomWeather, © 2016

Note: Actual official high and low records may vary slightly from our data, if they occured in-between our weather recording intervals... More about our weather records

Advertising

Vieux Fort Weather History for the Previous 24 Hours

 ConditionsComfort  
Time TempWeatherWind HumidityBarometerVisibility
11:00 AM
Thu, Feb 11
84 °FPassing clouds.20 mph70%30.07 "HgN/A
10:00 AM84 °FPassing clouds.17 mph70%30.09 "HgN/A
9:00 AM82 °FScattered clouds.17 mph74%30.09 "HgN/A
8:00 AM81 °FPassing clouds.17 mph74%30.07 "HgN/A
7:00 AM79 °FScattered clouds.17 mph79%30.07 "HgN/A
6:00 AM79 °FPassing clouds.17 mph79%30.04 "HgN/A
5:00 AM79 °FPassing clouds.21 mph79%30.01 "HgN/A
4:00 AM79 °FPassing clouds.22 mph79%30.01 "HgN/A
3:00 AM79 °FPassing clouds.24 mph79%30.01 "HgN/A
2:00 AM79 °FPassing clouds.24 mph79%30.01 "HgN/A
1:00 AM79 °FPassing clouds.21 mph89%30.04 "HgN/A
12:00 AM77 °FRain showers. Passing clouds.20 mph83%30.07 "HgN/A
11:00 PM
Wed, Feb 10
79 °FPartly cloudy.21 mph79%30.07 "HgN/A
10:00 PM81 °FPassing clouds.23 mph74%30.07 "HgN/A
9:00 PM79 °FPassing clouds.20 mph84%30.07 "HgN/A
8:00 PM79 °FPassing clouds.26 mph79%30.04 "HgN/A
7:00 PM79 °FPassing clouds.20 mph79%30.04 "HgN/A
6:00 PM79 °FPartly sunny.22 mph79%30.04 "HgN/A
5:00 PM81 °FScattered clouds.26 mph74%30.04 "HgN/A
4:00 PM81 °FPassing clouds.25 mph74%30.01 "HgN/A
3:00 PM81 °FScattered showers. Scattered clouds.21 mph79%30.01 "HgN/A
2:00 PM81 °FPartly sunny.20 mph79%30.04 "HgN/A
1:00 PM79 °FLight rain. Broken clouds.17 mph89%30.07 "HgN/A
12:00 PM81 °FBroken clouds.14 mph79%30.07 "HgN/A
Weather by CustomWeather, © 2016

See weather overviewHow to use our weather pages